| time (UTC) | temp F | wind direction | speed MPH | gust MPH | rain 1hr in | rain 24hr in | rain mn in | humidity % | barometer mb |
| 20260904204534 | 66 | 189 | 0.0 | 2.0 | 0.00 | 0.02 | 0.02 | 63 | 1013.6 |
| 20260904203034 | 66 | 215 | 1.0 | 4.0 | 0.00 | 0.02 | 0.02 | 64 | 1013.6 |
| 20260904201534 | 65 | 316 | 0.0 | 3.0 | 0.00 | 0.02 | 0.02 | 65 | 1013.8 |
| 20260904200035 | 64 | 323 | 0.0 | 3.0 | 0.00 | 0.02 | 0.02 | 66 | 1013.9 |
| 20260904194536 | 63 | 11 | 0.0 | 1.0 | 0.00 | 0.02 | 0.02 | 68 | 1014.1 |
| 20260904193106 | 63 | 337 | 1.0 | 4.0 | 0.00 | 0.03 | 0.02 | 66 | 1014.2 |
| 20260904191531 | 64 | 337 | 1.0 | 5.0 | 0.00 | 0.03 | 0.02 | 68 | 1014.3 |
| 20260904183031 | 59 | 67 | 0.0 | 2.0 | 0.00 | 0.05 | 0.02 | 82 | 1014.6 |
| 20260904180042 | 58 | 202 | 0.0 | 1.0 | 0.00 | 0.05 | 0.02 | 83 | 1014.5 |
| 20260904180035 | 58 | 202 | 0.0 | 1.0 | 0.00 | 0.05 | 0.02 | 82 | 1014.6 |
| 20260904173032 | 59 | 209 | 0.0 | 3.0 | 0.00 | 0.06 | 0.02 | 83 | 1014.5 |
| 20260904170034 | 58 | 172 | 1.0 | 3.0 | 0.00 | 0.06 | 0.02 | 88 | 1014.5 |
| 20260904164529 | 57 | 193 | 0.0 | 3.0 | 0.00 | 0.06 | 0.02 | 90 | 1014.4 |
| 20260904163032 | 56 | 157 | 0.0 | 2.0 | 0.00 | 0.06 | 0.02 | 92 | 1014.5 |
| 20260904151533 | 52 | 202 | 0.0 | 0.0 | 0.00 | 0.09 | 0.02 | 97 | 1014.2 |
| 20260904150034 | 51 | 202 | 0.0 | 0.0 | 0.00 | 0.09 | 0.02 | 97 | 1014.1 |
| 20260904144610 | 51 | 202 | 0.0 | 0.0 | 0.00 | 0.09 | 0.02 | 97 | 1014.0 |
| 20260904143033 | 50 | 202 | 0.0 | 0.0 | 0.00 | 0.09 | 0.02 | 97 | 1013.9 |
| 20260904141531 | 50 | 202 | 0.0 | 0.0 | 0.00 | 0.09 | 0.02 | 97 | 1013.7 |
| 20260904140036 | 50 | 202 | 0.0 | 0.0 | 0.00 | 0.09 | 0.02 | 97 | 1013.5 |
| 20260904134617 | 50 | 202 | 0.0 | 0.0 | 0.00 | 0.09 | 0.02 | 97 | 1013.4 |
| 20260904131535 | 50 | 202 | 0.0 | 0.0 | 0.00 | 0.09 | 0.02 | 97 | 1013.1 |
| 20260904130036 | 50 | 202 | 0.0 | 0.0 | 0.00 | 0.10 | 0.02 | 96 | 1012.8 |
| 20260904120036 | 50 | 202 | 0.0 | 0.0 | 0.00 | 0.10 | 0.02 | 96 | 1012.5 |
| 20260904113030 | 50 | 202 | 0.0 | 0.0 | 0.02 | 0.10 | 0.02 | 96 | 1012.5 |
| 20260904111530 | 50 | 202 | 0.0 | 0.0 | 0.02 | 0.12 | 0.02 | 96 | 1012.4 |
| 20260904104536 | 50 | 202 | 0.0 | 0.0 | 0.00 | 0.10 | 0.00 | 96 | 1012.0 |
| 20260904101536 | 50 | 202 | 0.0 | 0.0 | 0.00 | 0.11 | 0.00 | 96 | 1011.7 |
| 20260904094537 | 49 | 202 | 0.0 | 0.0 | 0.00 | 0.11 | 0.00 | 96 | 1011.6 |
| 20260904093034 | 49 | 202 | 0.0 | 0.0 | 0.00 | 0.11 | 0.00 | 95 | 1011.6 |
| 20260904091529 | 49 | 202 | 0.0 | 0.0 | 0.00 | 0.11 | 0.00 | 95 | 1011.6 |
| 20260904084532 | 49 | 202 | 0.0 | 0.0 | 0.00 | 0.13 | 0.00 | 95 | 1011.5 |
| 20260904081535 | 50 | 202 | 0.0 | 0.0 | 0.00 | 0.13 | 0.00 | 94 | 1011.3 |
| 20260904080038 | 50 | 202 | 0.0 | 0.0 | 0.00 | 0.13 | 0.00 | 94 | 1011.4 |
| 20260904074535 | 50 | 202 | 0.0 | 0.0 | 0.00 | 0.14 | 0.00 | 94 | 1011.5 |
| 20260904073037 | 50 | 202 | 0.0 | 0.0 | 0.00 | 0.14 | 0.00 | 94 | 1011.4 |
| 20260904071535 | 51 | 202 | 0.0 | 0.0 | 0.00 | 0.16 | 0.00 | 94 | 1011.3 |
| 20260904070035 | 51 | 202 | 0.0 | 0.0 | 0.00 | 0.16 | 0.00 | 93 | 1011.3 |
| 20260904064530 | 51 | 202 | 0.0 | 0.0 | 0.00 | 0.16 | 0.16 | 93 | 1011.3 |
| 20260904054537 | 52 | 202 | 0.0 | 0.0 | 0.00 | 0.19 | 0.16 | 91 | 1011.1 |
| 20260904053037 | 52 | 202 | 0.0 | 0.0 | 0.00 | 0.19 | 0.16 | 90 | 1011.2 |
| 20260904051530 | 53 | 202 | 0.0 | 0.0 | 0.00 | 0.19 | 0.16 | 90 | 1011.2 |
| 20260904050034 | 53 | 202 | 0.0 | 1.0 | 0.00 | 0.19 | 0.16 | 90 | 1011.2 |
| 20260904044530 | 53 | 222 | 0.0 | 1.0 | 0.00 | 0.20 | 0.16 | 89 | 1011.3 |
| 20260904043032 | 54 | 270 | 0.0 | 0.0 | 0.00 | 0.20 | 0.16 | 87 | 1011.2 |
| 20260904040035 | 54 | 270 | 0.0 | 0.0 | 0.00 | 0.20 | 0.16 | 87 | 1011.2 |
| 20260904034541 | 54 | 270 | 0.0 | 0.0 | 0.00 | 0.20 | 0.16 | 86 | 1011.2 |
| 20260904033029 | 54 | 270 | 0.0 | 1.0 | 0.00 | 0.20 | 0.16 | 85 | 1011.0 |
| 20260904031535 | 55 | 270 | 0.0 | 0.0 | 0.00 | 0.20 | 0.16 | 84 | 1010.9 |
| 20260904030030 | 56 | 258 | 0.0 | 3.0 | 0.00 | 0.23 | 0.16 | 84 | 1010.8 |
| 20260904024610 | 56 | 247 | 0.0 | 2.0 | 0.00 | 0.23 | 0.16 | 83 | 1010.7 |
| 20260904023029 | 57 | 249 | 0.0 | 3.0 | 0.00 | 0.25 | 0.16 | 81 | 1010.6 |
| 20260904021530 | 57 | 336 | 0.0 | 1.0 | 0.00 | 0.25 | 0.16 | 80 | 1010.6 |
| 20260904020030 | 58 | 337 | 0.0 | 2.0 | 0.00 | 0.25 | 0.16 | 79 | 1010.5 |
| 20260904014534 | 58 | 270 | 0.0 | 4.0 | 0.00 | 0.28 | 0.16 | 78 | 1010.5 |
| 20260904013105 | 59 | 308 | 0.0 | 1.0 | 0.00 | 0.28 | 0.16 | 75 | 1010.4 |
| 20260904011535 | 61 | 320 | 0.0 | 4.0 | 0.00 | 0.28 | 0.16 | 72 | 1010.3 |
| 20260904010034 | 63 | 318 | 0.0 | 3.0 | 0.00 | 0.28 | 0.16 | 69 | 1010.2 |
| 20260904004636 | 61 | 356 | 0.0 | 3.0 | 0.00 | 0.28 | 0.16 | 72 | 1010.2 |
| 20260904000037 | 59 | 64 | 0.0 | 4.0 | 0.00 | 0.32 | 0.16 | 75 | 1010.5 |
| 20260903234530 | 60 | 2 | 0.0 | 6.0 | 0.00 | 0.32 | 0.16 | 73 | 1010.6 |
| 20260903233036 | 61 | 303 | 2.0 | 11.0 | 0.00 | 0.33 | 0.16 | 69 | 1010.6 |
| 20260903230034 | 62 | 312 | 2.0 | 8.0 | 0.00 | 0.33 | 0.16 | 67 | 1010.7 |
| 20260903223030 | 63 | 278 | 2.0 | 10.0 | 0.00 | 0.35 | 0.16 | 67 | 1010.5 |
| 20260903221535 | 63 | 274 | 1.0 | 7.0 | 0.00 | 0.36 | 0.16 | 66 | 1010.5 |
| 20260903214530 | 67 | 289 | 3.0 | 10.0 | 0.00 | 0.38 | 0.16 | 57 | 1010.2 |
| 20260903213032 | 66 | 308 | 1.0 | 7.0 | 0.00 | 0.40 | 0.16 | 55 | 1010.1 |
| 20260903211536 | 69 | 326 | 1.0 | 5.0 | 0.00 | 0.41 | 0.16 | 52 | 1010.1 |